Location: Bezawada
(16.5136°N, 80.6297°E)
Time: 02:18:10
(UTC+00:00)

Delta 198 - Pass Details

Date: 27 February 2020
Orbit: 458 x 1020 km, 24.8° (Epoch: 03 April)

Event Time Altitude Azimuth Distance (km) Brightness Sun altitude
Rises 13:25:08 0° 290° (WNW) 3,641 8.8 -10.7°
Reaches altitude 10° 13:27:57 10° 291° (WNW) 2,633 7.9 -11.3°
Maximum altitude 13:34:22 84° 18° (NNE) 846 4.2 -12.9°
Enters shadow 13:38:34 18° 107° (ESE) 1,817 5.4 -13.9°
